Home   Weather   Freehold   Past weeks

Flag for USA Past Weather in Freehold, New Jersey, USA — Yesterday and Last 2 Weeks

Now
31 °F

Sunny.


Feels Like: 22 °F
Forecast: 25 / 37 °F
Wind: 12 mph from West

Location: Belmar-Farmdale

Current Time: Dec 10, 2016 at 9:55:44 am

Latest Report: Dec 10, 2016 at 8:56 am


Visibility: 10 mi

Pressure: 30.44 "Hg

Humidity: 67%

Dew Point: 21 °F

Location of FreeholdLocation

Past Weather in Freehold — Graph

°F

Freehold Temperature Yesterday

Maximum temperature yesterday: 39 °F (at 11:56 am)
Minimum temperature yesterday: 26 °F (at 11:56 pm)
Average temperature yesterday: 32 °F

High & Low Weather Summary for the Past Weeks

 TemperatureHumidityPressure
High63 °F (Dec 1, 1:56 am)100% (Nov 30, 4:56 am)30.43 "Hg (Nov 30, 4:56 am)
Low23 °F (Dec 10, 6:56 am)38% (Dec 4, 1:56 pm)29.48 "Hg (Dec 1, 2:56 am)
Average44 °F77%30.04 "Hg
* Reported Nov 25 7:56 am — Dec 10 7:56 am, Freehold, Weather by CustomWeather, © 2016

Note: Actual official high and low records may vary slightly from our data, if they occured in-between our weather recording intervals... More about our weather records

Advertising

Freehold Weather History for the Previous 24 Hours

Scroll right to see more
 ConditionsComfort  
Time TempWeatherWind HumidityBarometerVisibility
7:56 am
Sat, Dec 10
27 °FSunny.7 mph85%30.43 "Hg10 mi
6:56 am23 °FClear.5 mph88%30.42 "Hg10 mi
5:56 am24 °FClear.6 mph91%30.39 "Hg10 mi
4:56 am24 °FClear.7 mph88%30.38 "Hg10 mi
3:56 am24 °FClear.8 mph88%30.37 "Hg10 mi
2:56 am25 °FClear.5 mph81%30.37 "Hg10 mi
1:56 am25 °FClear.7 mph85%30.36 "Hg10 mi
12:56 am25 °FClear.8 mph81%30.33 "Hg10 mi
11:56 pm
Fri, Dec 9
26 °FClear.6 mph69%30.32 "Hg10 mi
10:56 pm28 °FClear.9 mph64%30.31 "Hg10 mi
9:56 pm28 °FClear.9 mph69%30.33 "Hg10 mi
8:56 pm29 °FClear.10 mph72%30.31 "Hg10 mi
7:56 pm31 °FClear.10 mph69%30.29 "Hg10 mi
6:56 pm32 °FPassing clouds.12 mph61%30.28 "Hg10 mi
5:56 pm33 °FPassing clouds.16 mph52%30.25 "Hg10 mi
4:56 pm34 °FPassing clouds.15 mph48%30.22 "Hg10 mi
3:56 pm36 °FPartly sunny.16 mph44%30.20 "Hg10 mi
2:56 pm37 °FPartly sunny.15 mph44%30.17 "Hg10 mi
1:56 pm39 °FOvercast.21 mph41%30.15 "Hg10 mi
12:56 pm39 °FOvercast.21 mph41%30.14 "Hg10 mi
11:56 am39 °FPartly sunny.20 mph43%30.14 "Hg10 mi
10:56 am37 °FSunny.20 mph48%30.16 "Hg10 mi
9:56 am35 °FSunny.15 mph52%30.18 "Hg10 mi
Weather by CustomWeather, © 2016

See weather overviewHow to use our weather pages